Wind_Speed
4 9 10 8 6 3 1 1 1 1 2 3 1 1 1 2 2 1 2 4 2 2 2 6 9 7 6 6 8 7 7 3 2 4 2 6 22 23 17 18 19 20 23 23 20 18 18 17 16 16 16 15 14 13 13 13 13 12 10 11 13 14 15 15 15 15 14 15 14 14 14 14 15 15 15 16 17 17 16 16 15 15 15 16 17 17 17 18 18 18 18 18 19 20 20 20 20
8 8 6 5 3 1 1 0 2 1 2 3 1 0 2 0 3 4 6 4 4 4 7 9 9 8 10 8 7 7 7 6 2 4 4 17 25 18 19 20 19 21 24 24 22 20 20 19 18 17 16 14 13 13 13 13 13 12 11 11 13 14 14 14 15 15 14 14 14 14 14 14 14 14 15 16 17 16 16 16 15 14 14 15 16 17 16 17 17 16 17 18 18 19 19 19 18
8 5 4 3 1 1 0 1 2 1 2 3 1 2 2 3 6 8 6 5 8 7 10 10 9 7 7 6 4 6 3 5 6 6 7 20 19 16 22 20 20 21 23 24 22 22 21 20 18 17 15 14 13 13 13 13 13 12 11 12 13 13 13 14 14 14 14 14 14 14 14 13 13 14 14 15 16 16 15 15 15 14 14 15 16 16 16 15 16 16 16 17 18 18 18 17 16
6 3 4 3 0 1 1 2 1 2 2 3 2 1 1 3 7 6 7 2 7 7 7 6 5 3 6 9 5 7 5 3 6 6 7 15 18 22 24 21 23 22 23 23 22 22 20 19 18 17 15 14 14 13 13 13 13 12 11 12 12 13 13 14 14 14 14 13 14 14 14 13 12 13 14 13 14 14 14 14 14 14 14 14 15 16 15 15 16 16 16 17 17 18 17 15 14
5 3 3 2 1 1 0 1 1 2 2 3 3 2 4 6 7 5 6 4 7 9 6 4 4 3 6 7 2 3 6 6 7 8 10 16 24 27 24 24 25 23 24 23 23 21 19 18 17 16 15 15 14 13 12 12 12 12 11 12 12 12 13 14 14 13 13 13 13 13 15 14 12 13 13 13 13 14 14 14 14 13 13 14 14 15 15 15 16 16 16 16 16 16 15 14 13
6 3 2 1 1 0 0 1 1 1 2 3 3 4 7 7 6 5 5 1 7 10 9 7 8 9 7 6 5 4 5 8 9 10 16 22 27 27 25 27 26 25 25 23 23 21 19 17 16 16 14 14 13 12 12 11 11 12 12 12 12 12 12 13 13 13 13 13 13 13 15 15 12 13 13 12 13 13 13 13 14 13 13 13 14 15 16 15 15 16 16 15 15 15 14 13 12
6 3 2 1 1 0 1 1 2 2 2 2 3 5 7 7 6 5 3 5 8 8 11 10 11 12 7 5 6 7 9 10 11 15 22 26 28 27 27 27 26 26 24 24 23 20 18 16 16 15 14 14 13 13 11 11 11 11 12 12 12 12 13 12 12 12 13 13 13 14 16 15 12 13 12 12 13 13 12 13 14 13 13 13 14 16 16 15 15 15 14 14 14 14 12 12 12
4 2 0 1 0 1 1 1 1 2 1 1 2 3 6 8 5 3 4 7 6 7 11 9 11 13 7 5 5 7 14 14 16 23 27 28 28 27 26 27 27 26 25 24 22 19 17 16 15 14 14 13 13 13 12 11 11 11 12 12 12 12 13 12 12 12 12 13 13 14 15 14 13 13 12 12 13 13 13 13 13 13 13 13 14 15 15 14 14 14 13 14 14 13 12 12 12
2 1 0 1 0 1 1 1 1 1 1 1 1 3 4 4 4 4 5 7 7 8 11 8 9 14 7 9 8 7 15 19 24 27 28 28 27 27 26 27 27 26 25 23 21 19 17 16 15 14 14 13 13 13 12 12 12 12 12 13 13 12 12 12 12 12 12 12 12 14 14 14 13 13 13 12 13 13 13 13 13 13 13 13 13 13 13 14 14 13 13 14 14 14 13 13 13
2 2 0 1 1 0 1 1 2 0 0 1 1 3 2 2 5 4 6 9 9 9 11 8 10 15 10 10 7 6 15 23 26 25 25 25 26 27 26 26 27 27 25 22 20 19 17 16 15 15 15 14 13 13 12 12 12 13 12 12 12 11 12 12 12 11 12 12 12 13 13 14 14 13 13 13 14 13 13 13 12 12 13 12 12 12 12 14 13 12 13 14 15 14 13 13 14
2 2 1 1 1 1 2 1 1 0 1 2 1 1 2 3 4 1 8 10 11 12 12 11 12 15 13 8 4 10 21 23 25 25 24 24 25 26 25 25 25 26 24 22 21 19 18 16 15 15 14 13 13 12 12 12 13 12 11 11 11 11 11 12 12 11 11 12 12 13 13 14 14 14 13 14 14 13 12 12 11 11 12 12 11 11 11 12 12 12 13 14 14 13 13 12 14
1 1 1 0 1 2 1 2 2 1 2 2 1 1 2 2 3 2 11 11 13 14 9 9 10 11 12 6 4 13 21 19 23 26 23 23 24 24 23 25 25 24 24 22 21 20 18 17 16 14 13 12 11 11 11 12 12 11 11 10 10 10 11 12 12 11 11 12 13 13 14 13 14 14 13 14 13 13 12 12 11 11 11 11 11 10 10 11 11 11 12 13 14 13 13 13 13
2 1 1 0 1 1 1 2 3 3 2 2 1 1 1 1 2 3 12 13 12 12 6 10 12 9 10 6 6 12 15 19 24 25 23 23 23 23 23 24 24 23 23 22 21 20 19 17 16 14 13 12 11 11 11 12 11 11 11 10 10 10 11 12 12 11 11 12 13 13 14 13 14 13 13 13 13 13 12 12 12 11 11 10 10 10 9 10 10 10 11 13 14 14 13 13 13
2 1 2 0 1 1 1 2 2 4 2 1 1 1 1 1 2 2 10 13 8 10 10 13 13 11 9 7 6 7 12 22 26 23 22 23 23 22 22 22 22 22 21 21 20 19 18 17 16 15 13 13 12 11 11 11 11 11 11 11 11 10 11 11 11 11 11 12 12 13 13 13 14 13 13 13 13 13 11 11 11 11 10 10 10 10 9 9 9 9 10 12 13 13 13 12 12
1 1 2 0 1 0 1 1 2 4 2 0 2 3 3 2 2 1 8 12 7 11 13 12 11 9 9 10 8 9 18 27 25 23 24 24 23 22 22 21 21 20 20 19 18 17 17 16 16 15 14 14 13 12 11 11 11 11 12 12 12 12 11 11 11 12 12 12 12 12 13 13 14 14 14 13 13 12 11 11 11 11 10 9 10 10 8 8 8 9 10 12 13 13 13 13 12
1 1 1 0 1 1 1 0 2 3 2 1 3 5 2 4 2 2 3 11 11 11 11 10 6 6 9 10 13 19 27 28 25 25 25 24 24 23 22 20 19 19 19 18 17 17 16 16 15 15 15 14 14 13 12 11 11 11 12 12 13 13 12 12 12 12 12 12 13 12 12 14 14 14 14 13 13 12 12 12 11 11 10 9 9 8 8 8 9 9 10 11 12 12 14 14 13
1 1 1 1 1 1 0 2 2 2 3 3 2 5 3 1 4 3 2 7 12 12 9 9 7 9 11 12 22 29 30 28 27 27 24 24 23 22 21 20 19 18 18 17 16 16 16 16 15 15 15 15 15 13 13 12 12 11 11 12 13 13 13 13 13 13 12 12 13 13 13 14 15 15 15 13 13 12 12 12 11 11 10 9 9 8 9 10 10 10 11 11 12 13 14 14 12
1 1 1 2 1 0 0 1 2 3 3 5 5 5 4 5 8 3 2 4 9 12 9 11 13 13 14 20 30 31 30 29 28 27 23 21 21 20 19 20 20 19 18 17 16 16 15 15 15 15 15 15 15 14 13 12 13 13 12 12 13 13 14 14 14 14 14 13 13 13 14 15 16 16 15 14 13 13 12 11 11 10 10 9 9 10 11 11 11 11 11 12 13 14 14 14 12
1 1 1 1 1 2 2 2 4 3 1 1 4 4 5 6 11 7 6 8 10 12 11 14 16 15 16 23 28 28 30 28 26 25 22 20 19 18 17 19 19 19 19 19 17 16 15 15 15 16 16 16 16 15 14 13 14 14 14 14 14 14 15 15 15 15 15 15 14 14 15 15 16 16 15 14 13 12 11 11 11 10 9 9 9 11 12 11 11 10 11 12 13 14 14 13 10
0 0 1 2 3 3 4 5 7 4 1 3 3 4 5 7 10 8 8 12 12 12 13 16 18 18 17 19 24 28 27 25 25 23 20 20 19 18 19 19 19 20 20 20 19 16 15 16 16 16 16 16 17 16 15 14 15 14 15 14 14 15 15 15 15 15 16 16 15 15 16 16 16 15 15 14 13 12 12 12 11 10 10 9 10 12 11 10 10 10 10 11 13 13 13 11 9
1 2 2 2 3 3 3 5 8 7 3 6 2 3 7 7 5 8 10 11 9 10 14 18 21 22 19 18 22 26 24 23 23 22 20 19 18 18 19 19 20 21 21 20 20 17 16 17 17 17 16 17 17 16 16 15 16 15 15 15 15 16 16 16 15 15 15 15 15 16 17 17 17 16 15 15 14 13 13 12 12 11 11 10 11 11 10 10 9 9 9 10 12 12 11 10 9
1 2 3 2 3 1 3 3 6 7 5 7 6 5 5 8 1 6 11 9 6 9 14 19 21 21 20 19 20 22 22 21 21 21 20 19 19 18 18 19 20 21 21 21 20 19 17 17 18 17 17 17 16 16 16 16 16 16 15 14 15 16 16 16 15 15 14 14 14 16 17 17 17 16 15 15 15 14 14 13 12 12 12 11 11 10 10 9 9 8 8 9 10 9 9 8 8
1 2 3 3 3 0 4 5 5 4 7 8 6 7 3 4 1 4 8 7 6 12 17 20 19 21 23 21 19 18 17 19 20 22 21 20 20 19 19 20 20 22 22 21 21 19 18 18 18 18 17 17 17 17 17 16 16 16 14 13 14 14 14 15 15 14 13 13 14 15 17 18 17 16 16 16 16 15 15 14 14 13 12 12 11 10 9 9 8 7 7 8 8 8 8 8 7
2 2 1 2 1 3 5 6 6 4 7 6 3 2 0 1 1 1 6 8 12 17 19 21 21 23 23 19 17 17 17 19 22 23 23 22 21 20 21 21 22 23 22 21 21 20 19 19 19 18 18 18 17 17 16 16 16 15 14 13 13 13 13 14 14 14 13 13 13 15 16 17 17 16 17 17 16 16 16 16 15 15 14 13 12 10 9 8 7 6 6 7 7 8 7 7 6
3 1 2 1 2 6 7 6 7 5 5 2 2 1 2 3 2 2 8 15 17 18 20 21 21 21 19 17 17 16 17 19 22 24 23 22 22 21 20 21 22 23 22 22 22 20 19 20 20 19 19 18 17 16 16 17 16 16 15 14 13 13 13 15 15 14 13 13 13 14 15 17 17 17 18 17 18 18 17 16 15 15 15 13 11 10 8 7 7 6 6 6 7 7 7 6 5
3 3 3 3 4 8 7 6 6 5 3 2 3 3 6 3 5 5 2 15 19 18 20 21 20 19 17 16 17 16 15 17 21 23 22 22 22 21 21 22 22 23 23 22 23 21 19 19 20 20 19 18 17 16 17 18 17 16 16 15 14 13 14 16 16 15 14 14 14 15 16 16 17 18 18 18 19 18 17 16 15 15 14 12 10 9 7 7 6 6 6 6 6 6 6 6 6
4 4 3 4 6 7 5 6 6 5 4 6 5 2 7 4 6 3 3 10 20 18 18 19 18 18 17 16 15 17 17 18 22 22 21 21 21 22 22 22 22 22 22 22 23 21 20 20 20 20 19 18 17 17 18 18 17 17 17 15 13 13 14 17 17 16 16 15 14 14 14 15 16 17 18 18 18 17 16 14 14 13 13 11 9 8 7 6 6 6 6 6 6 6 6 7 8
6 4 3 5 7 6 5 6 5 4 4 9 6 3 7 9 0 7 9 12 20 19 17 16 15 14 14 14 12 14 16 20 24 22 21 21 22 23 23 24 23 22 22 23 23 21 20 20 20 20 19 18 18 18 18 18 18 18 17 15 13 13 14 17 17 16 16 15 13 12 13 14 16 16 17 17 16 15 14 13 12 11 10 9 8 7 6 6 6 6 6 5 5 5 6 6 8
6 5 3 3 5 6 6 5 4 3 3 6 5 4 4 6 6 11 12 16 18 17 17 14 13 12 11 12 10 10 14 19 22 22 23 23 24 25 26 26 25 23 23 22 22 21 20 20 20 21 19 18 17 18 18 18 18 18 17 14 13 13 15 17 17 17 17 15 13 12 13 14 15 15 15 15 15 15 13 12 11 10 9 9 8 7 7 6 6 6 4 4 3 4 4 5 6
4 4 1 1 2 3 5 3 4 4 2 2 3 3 2 5 6 5 5 17 20 15 15 12 10 10 10 11 9 8 11 16 19 21 25 25 25 26 26 27 27 26 24 21 21 21 21 21 21 21 20 18 16 17 18 18 18 18 16 13 13 15 16 17 17 18 17 15 14 12 13 14 14 14 15 15 15 14 13 12 11 11 9 9 8 7 7 6 6 4 3 2 3 4 4 4 4
2 3 2 1 1 1 3 1 3 5 1 3 4 4 5 2 9 6 5 10 20 15 14 12 10 10 10 10 8 6 9 15 20 22 26 27 26 26 26 27 28 28 25 23 22 22 21 21 22 22 20 18 16 16 18 18 18 18 16 13 14 16 17 18 18 18 18 15 14 13 12 13 13 13 14 15 14 13 12 12 12 11 10 8 8 7 6 5 4 3 1 2 3 3 4 4 4
2 2 2 2 1 1 4 1 1 5 0 4 5 3 3 1 8 12 7 9 17 14 13 11 10 12 10 8 7 7 9 16 22 24 26 27 27 27 27 28 29 29 28 25 22 22 21 21 22 22 21 20 17 16 18 18 18 17 15 13 13 17 19 18 18 18 18 16 14 13 13 13 12 12 12 14 15 13 11 13 13 11 10 8 7 6 6 5 4 2 1 2 3 3 4 4 2
1 2 2 1 1 2 3 1 1 5 2 3 1 3 3 2 3 7 6 10 16 11 12 12 11 12 9 7 8 7 8 12 17 21 24 25 28 29 29 29 30 30 29 26 24 23 22 22 22 22 21 20 18 17 18 18 17 16 15 14 14 18 21 19 18 18 18 17 15 14 14 13 11 11 12 14 16 14 12 13 13 11 10 8 7 7 7 6 3 1 1 2 4 5 6 3 1
1 1 1 2 2 3 3 3 4 6 4 1 0 1 3 2 3 5 7 6 14 12 11 12 11 10 7 8 9 8 8 9 11 16 21 24 27 30 30 30 31 31 29 28 26 24 22 22 23 22 21 19 18 18 18 18 17 15 14 15 16 19 21 20 19 19 19 17 16 15 14 12 10 11 13 14 15 14 13 13 12 11 10 8 8 7 7 5 3 2 2 3 5 6 6 3 0
3 4 3 1 2 3 3 5 6 7 5 3 2 3 3 3 4 5 7 5 5 10 11 11 11 9 7 9 9 8 9 8 10 15 21 26 28 29 31 31 31 30 29 28 27 25 23 22 22 23 21 18 18 18 18 17 17 15 15 16 18 19 20 19 18 18 18 17 16 15 14 12 10 12 14 14 14 14 13 13 12 11 10 9 8 7 7 5 2 2 4 4 5 6 4 2 2
8 7 4 3 3 2 3 4 5 7 6 3 3 3 2 3 3 3 5 7 5 7 11 9 10 9 8 9 8 8 8 7 12 16 21 28 29 29 30 31 30 29 29 29 27 25 24 23 23 23 20 19 18 18 19 18 17 16 16 17 18 19 20 18 17 16 16 17 16 14 13 12 10 12 15 15 14 14 13 13 13 11 10 10 8 6 6 4 3 3 3 4 4 4 3 2 3
8 5 3 4 4 2 3 5 6 6 5 2 2 3 2 3 2 2 3 4 6 3 12 12 10 8 8 10 9 8 8 9 13 16 21 29 29 28 30 30 29 28 28 29 27 27 26 24 25 24 22 20 20 20 20 19 18 17 17 17 17 19 19 16 17 17 16 17 17 15 13 12 9 12 16 16 15 15 14 14 12 11 10 8 7 5 5 4 3 1 1 2 3 3 2 2 4
7 4 4 4 3 3 3 5 6 2 3 3 4 3 2 3 1 2 2 1 4 1 8 12 12 10 9 11 10 9 8 8 11 14 21 26 25 27 29 29 30 29 29 29 29 29 27 26 26 24 23 22 21 22 21 19 18 16 16 16 15 17 18 16 17 18 15 15 17 15 14 12 10 11 15 16 16 16 14 13 10 9 8 7 7 6 6 4 2 1 1 2 3 5 4 1 0
6 4 4 4 3 4 5 5 6 3 3 4 7 4 3 3 1 4 2 1 3 3 1 5 10 11 10 11 10 9 9 8 9 12 19 23 23 25 27 28 31 31 29 29 29 29 28 27 26 25 23 22 22 22 22 21 18 16 16 15 14 16 17 17 18 16 13 14 16 15 13 13 11 11 14 15 15 14 12 11 9 8 7 7 8 7 6 4 2 2 2 3 4 5 4 1 2
7 5 4 4 5 5 2 4 7 5 2 4 6 4 2 3 2 5 1 1 4 3 3 3 5 8 10 11 10 10 11 10 11 12 16 20 22 24 25 26 30 30 29 28 28 29 29 28 28 26 24 23 22 22 22 20 17 16 15 13 14 15 16 17 17 15 14 13 13 13 13 13 12 12 13 14 13 12 11 11 10 9 8 8 8 6 5 4 3 3 4 6 6 8 8 4 2
7 8 6 6 9 7 4 7 8 6 2 3 5 5 1 1 3 5 2 1 4 3 2 3 2 3 7 11 10 12 13 11 12 13 13 16 19 22 25 27 28 28 28 28 29 29 29 29 29 27 25 24 22 21 22 18 16 16 15 13 14 15 16 17 17 17 15 13 13 13 12 12 12 12 12 11 11 12 11 11 10 9 7 8 8 6 5 5 4 5 6 7 7 9 10 7 4
5 8 9 11 12 9 10 12 9 4 2 4 3 4 2 2 4 6 3 2 4 2 2 4 1 2 5 9 9 12 13 11 13 13 13 16 19 22 25 27 27 27 28 29 29 28 29 30 28 26 25 25 23 22 21 18 16 18 17 15 15 17 18 18 18 19 17 15 13 12 11 11 10 9 9 8 9 10 10 10 9 8 7 7 6 5 5 4 4 5 5 5 7 8 10 9 6
4 8 11 11 11 13 15 14 8 3 3 4 3 2 2 2 3 7 5 3 5 3 3 5 3 2 5 7 8 11 12 11 12 13 14 16 19 22 24 25 27 26 27 29 28 27 28 29 28 26 25 26 24 23 21 19 19 19 18 17 16 17 20 20 19 19 17 15 13 11 12 11 10 9 8 7 7 8 9 8 7 7 7 7 5 4 4 4 4 4 4 4 6 8 8 10 10
4 9 13 14 14 15 16 12 5 3 4 4 3 0 3 3 5 6 6 5 6 6 5 6 5 3 4 6 8 12 13 12 12 13 13 16 20 23 24 25 27 27 28 28 27 28 28 29 28 26 25 27 26 24 22 21 22 21 20 19 18 18 21 22 20 19 17 14 12 12 12 12 11 10 8 7 7 8 8 7 8 8 8 7 5 4 4 3 3 3 3 3 5 7 7 8 10
3 8 13 13 13 13 12 7 4 3 5 3 4 2 3 2 3 4 5 6 8 9 9 8 7 5 4 5 8 12 13 13 13 13 14 17 21 24 26 26 26 27 28 28 28 29 29 29 28 26 25 27 26 24 24 23 22 21 22 21 20 20 22 23 22 19 17 15 13 13 13 12 12 11 9 7 8 8 7 7 9 10 8 7 6 5 4 2 2 2 3 2 3 5 6 7 9
5 10 10 9 11 9 6 4 3 3 2 3 7 5 2 2 3 5 6 8 10 10 9 8 7 6 5 5 7 10 11 11 12 14 16 20 24 26 28 27 26 27 28 28 28 29 30 29 28 27 26 27 26 25 25 24 20 20 23 23 22 21 21 23 23 21 19 17 15 14 14 14 14 14 12 9 9 9 8 8 9 9 8 7 7 6 4 2 2 3 2 1 2 3 3 5 8
14 13 9 9 7 4 4 3 3 3 2 3 9 9 3 1 4 7 7 8 11 10 7 8 8 6 6 5 5 9 10 10 11 12 16 22 25 27 28 26 26 27 27 27 28 29 30 30 28 27 27 28 26 25 26 24 20 19 21 23 23 21 21 23 24 22 20 20 19 17 16 16 15 15 14 11 11 10 9 9 9 9 9 8 7 6 5 4 3 3 2 1 0 1 1 3 5
15 9 6 7 4 3 4 2 3 2 3 3 9 11 5 2 3 8 8 5 8 11 9 11 11 9 7 6 5 7 10 10 10 11 13 18 21 23 26 25 26 27 26 27 29 29 30 30 28 26 27 29 27 25 25 25 23 20 19 20 21 20 20 23 25 23 21 22 22 20 19 18 16 15 15 14 13 12 11 11 10 10 10 9 8 7 7 6 5 4 3 2 2 2 1 1 2
10 8 6 5 2 2 2 1 0 2 4 2 8 10 3 3 4 8 11 7 7 10 10 11 12 11 9 8 6 6 8 10 10 11 12 13 15 20 23 24 26 27 26 28 29 29 31 31 29 27 27 28 28 26 26 26 25 23 21 19 20 20 19 21 23 23 22 23 23 22 21 20 18 16 16 16 15 14 13 13 12 11 11 10 9 9 8 7 6 5 4 3 3 3 2 1 1
10 9 6 4 3 2 2 2 1 2 3 2 5 7 2 3 3 7 12 12 9 9 10 10 12 13 11 9 8 6 8 10 10 11 12 11 15 20 23 24 26 26 27 29 30 30 30 30 30 29 27 28 28 27 26 26 27 26 23 21 21 21 20 21 22 22 22 23 23 22 21 21 20 18 18 17 16 14 14 14 13 12 11 11 10 9 9 7 7 7 6 5 5 4 4 4 3
7 7 6 4 4 4 4 4 2 2 1 2 1 3 3 2 2 5 9 11 10 9 9 10 10 11 10 8 7 7 8 9 9 11 13 13 18 23 23 25 27 27 27 28 29 29 30 31 31 30 28 28 28 28 27 27 27 27 25 22 21 21 21 22 21 21 22 22 22 23 22 22 21 19 18 17 17 15 14 14 13 12 11 12 11 10 9 9 8 9 8 7 6 5 4 5 5
3 5 5 2 5 4 3 3 4 4 2 1 1 3 3 3 3 3 5 8 11 10 10 11 11 10 9 8 8 7 8 9 9 11 12 15 21 24 24 25 27 28 28 28 29 29 30 30 31 31 30 29 29 28 28 28 27 28 26 24 22 21 21 21 21 22 21 20 21 22 23 22 21 19 17 16 16 16 15 14 14 13 12 12 12 10 11 10 9 10 11 9 8 6 5 6 6
1 3 5 5 5 6 5 2 3 5 3 1 2 2 2 1 3 3 6 8 11 12 12 13 12 11 9 9 9 7 7 10 10 11 13 15 20 23 24 26 28 28 29 29 30 31 31 31 31 30 29 29 29 29 29 28 27 28 27 25 23 21 21 21 21 22 21 20 20 21 21 21 20 18 17 16 16 17 17 15 15 14 13 13 13 12 12 11 10 11 12 10 9 8 7 6 6
4 2 5 4 1 4 4 4 2 2 2 1 2 2 2 1 1 2 6 8 11 13 13 12 12 12 11 10 10 8 7 9 10 11 13 16 20 23 25 27 29 31 31 31 32 32 32 32 32 32 30 29 30 29 29 28 27 27 27 26 25 24 22 21 21 21 21 20 20 21 20 20 19 18 17 17 17 17 17 16 16 15 15 15 14 14 14 13 11 11 11 11 9 9 8 7 6
4 4 3 1 2 1 1 3 3 1 1 1 3 2 2 3 3 4 7 9 11 13 12 13 14 14 13 11 11 10 7 8 10 10 11 14 19 23 25 27 30 32 33 32 32 32 31 31 32 33 32 31 30 29 29 28 26 27 27 26 26 25 24 22 21 21 21 20 20 21 20 20 20 19 17 17 18 18 18 17 17 17 16 15 15 14 15 16 13 12 12 12 10 9 9 8 7
1 0 2 1 3 3 2 3 4 3 3 2 1 2 3 4 3 5 8 9 10 12 11 12 13 14 13 11 10 10 7 7 9 10 10 13 20 25 27 29 31 32 32 33 33 31 31 31 31 31 31 30 29 28 28 28 27 26 26 26 26 26 25 24 23 22 22 21 21 21 20 20 20 19 19 18 18 18 19 19 19 18 16 16 15 13 14 16 14 12 13 13 11 9 9 9 8
2 0 1 1 1 1 1 1 2 4 4 2 2 1 4 4 3 4 7 7 9 11 10 9 10 11 11 9 8 7 6 6 8 10 10 12 19 25 28 31 33 33 32 32 33 32 31 31 30 30 30 29 29 29 28 28 27 26 26 26 26 26 25 24 24 23 22 21 21 22 21 21 20 19 19 20 19 18 17 18 20 19 17 17 17 13 12 15 15 13 12 13 11 10 11 11 9
6 4 4 4 3 1 1 3 3 2 4 4 5 2 4 4 3 4 5 6 6 8 9 7 8 10 9 9 8 5 3 3 6 9 11 13 18 23 27 29 30 31 31 31 31 31 30 30 31 31 30 30 29 29 29 28 27 26 26 26 26 26 25 24 24 23 22 21 22 22 21 21 20 18 18 20 20 19 17 17 20 20 17 17 18 15 12 14 14 13 12 13 12 9 10 11 10
Wind_Direction
134 129 115 114 110 99 153 204 49 4 77 79 66 43 119 271 6 77 218 166 144 204 169 126 145 150 126 122 139 107 57 103 171 144 175 149 143 146 150 155 156 153 150 146 149 150 149 147 143 136 131 132 131 129 126 121 119 119 118 116 118 118 118 119 120 118 118 117 114 113 112 111 111 113 117 120 118 118 116 111 109 107 105 103 103 103 102 104 105 106 107 107 106 105 105 105 104
139 123 114 113 99 91 158 160 84 25 59 74 354 5 176 138 114 207 241 155 132 133 109 102 108 101 103 114 126 89 45 21 64 113 98 131 135 141 152 157 156 153 150 148 151 151 150 146 140 134 132 134 133 131 126 124 122 120 120 119 119 118 118 119 121 121 120 118 116 114 112 111 111 113 116 119 118 118 117 113 110 106 103 102 103 104 104 104 106 106 108 109 108 107 106 107 106
141 120 137 148 59 45 112 31 94 83 63 98 343 277 186 149 174 219 249 131 117 120 107 100 91 84 101 99 73 72 66 23 73 99 110 133 134 146 157 157 154 152 148 146 147 145 144 140 137 134 135 136 135 133 129 127 125 123 121 120 120 119 120 121 122 124 122 119 120 117 113 112 113 115 117 119 119 118 118 114 109 106 104 104 104 105 105 106 108 107 108 110 110 108 106 106 104
146 143 169 185 22 33 48 47 96 113 99 143 158 272 254 204 197 215 262 214 123 114 100 101 74 19 94 102 90 82 100 67 85 105 125 144 143 150 157 154 152 148 144 143 141 140 139 138 137 136 137 137 136 135 133 131 129 126 124 123 123 120 121 123 124 123 121 122 122 122 120 116 114 117 117 117 117 118 118 114 110 108 106 105 106 107 106 106 106 106 108 110 110 108 106 104 100
149 176 186 197 20 21 45 79 91 107 136 176 153 170 219 229 202 198 263 252 123 108 102 111 89 62 85 96 111 96 116 112 104 111 122 139 143 150 155 152 149 144 143 142 140 139 139 138 137 136 137 138 137 136 135 134 131 129 129 128 127 125 124 123 123 123 123 125 124 124 124 120 117 119 117 116 117 120 120 114 112 110 108 107 108 107 107 107 106 107 109 110 109 108 108 107 100
143 140 146 102 54 266 61 88 112 132 190 163 151 179 198 217 202 205 248 187 101 101 101 93 107 107 83 65 61 83 127 122 118 125 125 136 146 151 152 150 148 143 143 142 141 141 140 139 137 138 139 139 138 137 136 134 132 132 133 132 133 133 131 128 127 127 128 128 125 123 123 121 121 121 119 120 120 121 121 117 116 112 109 111 110 109 108 108 109 110 110 110 110 111 113 111 100
152 144 68 51 79 275 103 134 169 166 222 157 175 179 185 206 203 217 209 106 77 89 100 100 119 107 85 89 79 82 105 115 126 132 132 140 148 150 149 149 146 143 143 143 142 141 140 140 139 142 142 142 140 140 140 137 138 138 138 138 138 139 138 134 132 131 131 131 127 124 125 123 122 122 122 122 121 121 124 122 119 114 111 111 111 111 111 110 110 113 113 113 114 116 114 104 96
136 163 14 74 71 322 121 213 183 160 227 190 199 173 180 198 209 221 143 111 96 106 106 118 120 94 74 88 89 90 99 113 126 131 135 140 145 146 148 147 144 143 144 144 142 140 141 142 144 145 145 146 144 145 146 144 145 144 144 143 141 142 142 139 135 133 132 132 129 128 128 126 124 124 124 123 122 124 127 125 122 118 115 114 113 113 113 114 114 115 116 117 119 118 111 101 96
53 21 209 79 45 344 263 243 147 164 225 159 202 178 182 210 247 215 128 99 112 115 109 132 114 97 96 85 90 95 100 118 125 130 136 139 144 146 147 146 145 145 145 143 141 142 145 147 149 150 150 150 150 150 152 149 149 147 147 146 142 143 144 142 138 137 135 134 133 131 130 129 127 126 126 128 127 127 127 128 126 121 118 116 116 116 117 120 119 118 119 122 124 121 114 108 103
29 19 68 353 207 225 264 225 140 219 323 86 199 165 133 346 283 217 114 103 114 103 101 104 94 106 116 94 92 110 117 127 127 131 136 138 145 147 147 146 147 146 145 145 144 146 147 151 152 152 153 154 155 155 153 152 151 148 147 144 141 140 141 144 142 141 139 137 137 136 136 133 132 130 129 130 127 127 128 129 128 123 121 120 120 121 123 124 124 123 124 126 127 125 120 113 108
33 17 87 354 243 239 229 178 113 47 9 38 31 83 69 31 301 223 104 109 109 105 112 96 93 110 108 93 89 122 128 131 130 135 138 139 144 145 146 147 149 148 147 147 147 148 149 152 153 154 155 155 156 154 152 151 149 146 144 141 140 141 141 145 145 144 144 145 145 141 141 137 135 135 131 130 128 127 129 130 128 126 126 126 124 125 129 129 127 125 126 128 128 127 123 117 110
65 354 54 33 274 274 232 131 119 91 45 83 123 40 106 103 289 174 112 116 116 118 131 108 119 121 102 100 118 129 132 134 137 140 140 140 142 144 148 149 151 151 149 148 148 149 150 152 152 155 155 154 154 152 151 147 147 146 145 144 143 145 146 147 146 147 149 150 149 144 144 142 140 139 135 134 132 130 131 132 132 131 129 129 128 128 133 133 129 128 129 129 129 128 126 122 114
117 162 109 219 221 243 192 121 127 100 89 143 155 45 83 149 232 170 121 126 126 122 130 122 136 124 101 115 131 137 139 143 145 144 143 142 142 144 148 150 151 152 150 150 150 151 151 152 152 153 152 152 151 150 149 146 147 147 148 148 147 150 151 149 147 149 149 147 148 146 147 147 145 141 138 138 135 134 134 136 137 134 133 134 133 131 135 136 135 135 133 130 129 129 127 124 121
128 159 130 277 258 229 108 113 136 122 151 195 104 91 297 181 183 227 130 125 119 123 123 125 129 108 109 133 137 151 147 148 150 148 146 143 144 144 146 149 151 152 151 153 153 153 153 153 153 151 153 153 151 150 148 147 147 148 149 149 150 152 152 151 151 151 149 146 147 146 149 151 148 143 140 141 138 136 137 140 140 137 138 140 135 130 132 134 137 137 132 130 130 130 128 127 129
136 162 109 285 269 47 64 92 147 135 177 235 79 69 337 251 153 267 144 124 112 130 122 127 133 111 143 162 151 161 151 151 153 149 145 142 143 142 144 148 151 153 154 156 154 155 156 156 154 152 155 154 152 151 149 148 149 151 150 150 152 152 152 153 154 155 153 150 149 148 151 150 148 148 145 143 139 137 140 142 143 141 140 140 135 131 132 130 133 134 132 132 131 131 130 133 135
144 143 103 13 331 45 96 275 118 124 196 199 108 92 343 279 97 6 145 120 127 139 129 147 163 123 154 161 142 148 149 152 152 147 142 139 141 140 144 147 149 154 156 157 157 160 160 156 155 153 155 154 153 151 148 149 151 153 151 153 155 151 150 153 155 157 156 154 153 151 148 145 147 149 145 142 140 139 142 141 143 140 137 139 137 136 135 130 132 134 134 133 131 132 134 136 137
118 85 72 61 13 14 116 213 155 139 174 170 148 141 189 144 74 347 25 106 136 140 136 146 132 112 134 141 138 142 146 150 148 144 141 139 141 141 144 146 149 154 156 160 162 164 162 158 156 153 153 152 152 150 149 152 151 151 150 152 152 149 149 151 152 152 150 154 155 150 148 147 147 145 143 144 142 140 140 138 139 137 138 142 142 145 139 132 133 136 135 133 133 136 139 140 139
126 55 26 50 59 260 312 254 6 10 146 170 193 183 211 148 130 179 106 106 138 129 131 127 112 112 125 134 138 139 141 144 143 143 144 144 146 145 147 150 153 157 159 165 168 166 163 161 158 154 153 151 152 151 153 155 152 150 149 149 148 149 150 148 147 146 145 150 153 151 152 151 147 144 143 144 141 140 139 137 139 139 143 142 141 144 139 134 134 135 134 133 136 140 144 145 142
102 67 55 42 193 195 179 145 54 1 317 189 228 202 230 177 148 170 148 140 139 128 133 121 116 124 129 136 138 139 140 141 142 145 147 150 153 151 150 153 156 160 163 168 170 169 165 164 162 158 155 153 154 155 159 158 152 152 150 150 150 150 149 148 147 146 146 147 148 150 152 149 145 143 140 139 138 138 138 138 141 142 147 143 139 142 139 139 138 137 136 137 141 143 146 147 146
13 120 202 187 202 199 173 162 139 184 223 77 275 277 250 204 150 165 153 139 143 143 143 132 131 139 141 141 139 140 143 143 145 148 151 155 157 155 155 156 159 163 167 170 171 171 168 168 167 163 159 158 160 161 162 158 153 154 150 150 151 148 146 147 146 146 147 145 145 147 149 146 142 140 137 137 137 138 140 140 142 146 150 145 141 142 143 144 140 138 139 143 146 147 148 148 148
255 209 223 190 196 199 172 173 142 153 140 112 126 318 277 254 154 156 154 140 151 158 150 143 143 145 144 143 142 145 147 146 148 151 154 157 158 157 159 159 161 165 168 170 172 173 173 174 171 165 163 165 167 165 164 161 156 155 152 150 150 148 146 146 147 146 147 146 146 147 148 147 143 141 141 142 140 141 144 144 147 150 149 145 143 144 145 141 136 137 139 145 149 150 152 151 152
225 226 242 238 226 190 140 147 126 133 121 109 123 137 247 272 176 148 155 152 166 158 145 143 144 145 146 146 145 147 148 150 152 155 158 160 159 159 160 160 161 163 167 170 173 176 175 175 171 168 169 171 172 169 166 164 162 160 157 155 153 153 150 147 150 151 151 150 150 152 152 152 148 145 147 146 145 145 146 147 149 149 147 146 147 147 146 143 142 144 146 151 155 158 161 164 165
181 247 227 216 249 80 111 119 119 140 130 127 158 159 216 289 114 137 148 156 152 139 136 140 143 142 144 145 145 147 151 154 155 160 162 162 163 163 161 161 163 165 169 171 172 175 176 175 173 172 173 173 173 171 167 165 165 164 161 161 161 160 159 155 154 155 155 153 154 158 157 154 152 151 152 150 149 149 149 149 149 148 148 149 150 151 154 157 156 157 158 161 167 172 175 176 178
179 247 202 170 188 94 98 106 107 104 116 137 187 164 349 22 20 147 134 139 133 130 132 138 142 141 144 145 149 153 156 159 160 164 165 165 168 168 165 164 167 169 171 173 172 172 175 178 178 175 176 175 174 171 167 166 165 165 163 164 164 164 167 164 160 158 156 154 158 164 163 159 158 157 157 156 154 153 152 151 151 153 155 156 156 159 165 169 170 171 171 175 180 185 189 189 191
189 166 56 129 107 94 89 90 92 77 85 133 154 97 290 106 27 307 139 136 131 131 133 137 143 145 148 150 154 157 161 165 164 164 165 166 167 166 166 166 167 169 172 175 173 172 175 181 183 182 181 178 175 170 167 166 163 162 161 159 159 162 167 168 166 162 155 153 160 170 171 166 164 164 163 162 159 157 158 157 157 160 161 161 163 166 171 173 177 181 185 190 193 197 203 208 221
180 103 79 138 110 93 88 86 80 76 68 351 73 24 310 101 80 348 125 137 133 134 136 139 149 151 154 157 158 162 165 168 164 164 165 163 163 161 165 166 167 171 174 176 175 174 178 184 188 188 187 182 175 169 167 165 163 162 158 154 157 161 165 169 169 163 155 152 158 169 175 173 169 168 168 165 162 161 162 163 164 164 164 165 169 173 176 182 187 191 196 198 202 212 218 232 250
106 99 103 113 100 96 93 94 87 93 61 18 70 86 315 355 80 39 275 149 134 136 139 142 149 152 157 159 161 164 167 170 167 164 159 157 160 161 165 167 168 173 173 176 178 179 182 186 189 189 188 183 175 169 167 168 168 165 160 158 161 163 167 171 169 164 158 154 155 162 171 176 173 172 170 166 164 164 164 166 167 167 168 171 175 181 183 189 193 193 197 200 211 228 241 253 262
88 62 85 101 99 96 85 81 75 96 59 35 71 90 341 331 61 172 197 156 136 140 144 146 149 152 158 159 161 164 167 170 167 162 158 158 161 162 166 169 170 172 173 176 180 182 185 187 187 187 185 179 173 170 170 171 171 168 167 168 165 165 171 173 171 167 162 157 156 156 161 168 170 172 172 168 166 165 165 167 170 173 175 177 180 184 187 191 193 193 199 212 230 256 271 274 270
82 28 34 123 112 84 68 62 53 72 55 51 84 74 350 284 213 190 178 144 137 142 146 150 152 153 158 159 163 163 163 162 159 159 161 162 164 165 168 172 172 171 174 177 181 184 185 185 185 185 182 176 173 170 171 172 171 171 175 175 169 169 174 172 171 170 164 159 161 160 159 163 166 170 172 169 167 166 169 171 175 181 180 181 183 186 189 191 193 197 211 239 271 286 290 292 270
92 54 5 222 107 63 54 68 90 86 22 16 95 115 237 244 166 190 196 141 140 144 150 158 154 155 158 162 166 163 159 156 155 158 161 163 165 167 168 171 173 172 174 175 180 184 181 181 183 184 182 178 174 169 168 170 170 175 178 175 173 174 175 171 169 169 166 164 165 165 164 165 167 171 173 172 170 170 174 179 181 185 185 187 192 190 185 187 192 197 216 259 289 296 306 316 284
89 103 220 292 76 84 70 94 121 103 321 356 61 129 201 235 116 143 274 151 144 148 158 162 155 156 161 166 164 159 157 156 159 160 161 163 166 167 166 170 174 172 173 174 176 179 177 178 181 184 184 180 177 171 167 168 172 177 176 172 175 175 175 173 170 169 170 169 168 168 168 169 170 173 177 178 176 175 177 182 182 183 184 187 191 184 173 175 182 186 214 279 293 291 302 300 285
51 111 251 341 63 134 117 216 75 113 172 42 67 160 187 5 121 151 225 176 147 152 163 159 157 160 163 165 159 158 156 155 160 163 163 162 163 165 165 169 173 173 173 173 172 174 176 179 181 184 183 180 181 176 169 171 176 177 176 175 177 175 173 172 170 170 173 174 173 171 169 169 172 176 179 182 182 179 175 179 181 179 177 178 182 175 160 157 159 169 268 315 307 287 293 285 264
24 121 262 313 111 118 128 234 63 131 147 65 131 198 136 11 114 139 233 185 149 155 166 155 159 164 160 157 158 156 150 154 161 166 164 160 160 164 166 168 172 173 172 171 170 172 176 180 181 182 180 181 184 178 170 174 177 176 177 178 175 173 172 168 164 164 167 173 175 172 168 168 174 180 179 179 181 180 175 178 180 173 171 172 171 163 149 146 150 183 238 303 305 294 295 292 155
257 140 225 265 152 132 156 163 153 166 165 100 207 122 97 347 39 48 319 211 155 160 166 157 161 162 154 153 156 153 149 154 162 167 164 157 157 160 164 169 171 171 170 170 172 173 175 178 182 181 179 183 185 179 173 177 179 174 174 174 170 169 170 168 163 161 162 168 172 168 164 165 171 178 179 177 178 178 176 177 175 167 164 158 152 149 147 151 163 204 249 275 290 294 289 290 17
185 185 180 214 170 151 168 157 164 168 135 109 102 88 78 1 15 45 353 318 169 168 163 157 162 155 151 156 152 150 153 157 166 168 159 155 156 157 162 168 167 168 169 171 174 174 174 176 180 180 180 184 183 179 177 181 183 176 169 167 167 167 167 168 167 166 166 167 170 168 165 166 169 173 176 178 179 177 174 170 165 160 157 153 150 151 151 156 185 237 277 280 280 284 275 283 324
180 187 164 152 159 156 164 147 162 150 104 87 102 95 101 54 4 43 30 332 304 181 159 152 162 153 151 161 152 152 157 165 174 167 152 152 156 156 160 164 162 165 168 169 173 175 173 173 177 179 182 186 182 179 182 186 185 177 171 168 170 172 170 171 174 175 174 170 173 176 171 172 174 175 175 176 176 174 169 163 158 156 157 158 159 156 156 174 212 238 285 301 291 280 264 281 304
172 164 149 151 144 145 156 144 161 148 100 91 102 76 85 78 359 13 47 322 318 186 162 157 163 155 154 164 157 156 164 173 173 160 149 152 155 155 158 159 159 163 165 167 172 174 174 175 178 179 183 185 183 183 185 187 185 178 176 176 176 177 176 180 184 183 182 176 178 183 181 177 175 175 175 173 170 167 164 162 159 159 162 162 161 164 174 187 194 222 319 336 341 324 298 296 299
160 145 144 147 151 131 97 125 155 145 68 157 158 115 110 90 313 312 30 326 325 319 167 163 165 158 158 168 162 161 170 172 162 148 147 152 154 154 155 156 158 161 163 166 169 173 176 176 178 181 182 184 183 183 181 182 186 183 181 180 177 179 183 188 189 188 187 181 180 184 186 179 169 167 170 168 167 166 163 159 157 162 166 169 173 178 180 172 142 86 4 16 12 350 334 324 151
149 153 150 145 152 103 70 113 122 23 359 164 159 145 125 88 292 286 2 287 282 302 223 180 171 160 161 172 165 163 170 164 151 143 149 151 150 150 151 154 158 161 164 165 167 170 173 174 178 180 181 183 184 183 181 182 188 187 184 183 180 183 187 189 189 189 190 186 179 183 187 180 170 166 167 167 167 165 160 157 161 167 171 179 185 180 173 162 128 99 65 46 34 13 2 94 113
159 165 152 151 166 140 129 153 107 50 347 177 153 129 77 65 309 282 241 222 278 273 277 265 184 161 169 176 165 164 169 160 150 149 152 150 146 147 149 153 156 160 163 165 165 167 171 173 176 179 181 184 184 184 186 184 188 188 184 187 187 187 187 186 190 191 191 189 181 183 188 181 173 166 165 167 167 163 163 169 173 175 176 182 184 174 164 154 118 93 75 52 36 26 25 44 26
174 168 154 163 177 163 134 141 116 73 69 171 134 103 45 166 201 256 217 172 276 282 291 277 187 144 179 180 165 165 167 159 154 154 156 151 145 146 150 152 156 159 163 167 167 167 171 175 177 180 182 183 183 186 186 184 188 187 185 186 181 184 189 185 185 188 189 191 188 188 193 191 182 170 164 164 167 171 176 182 184 186 186 180 175 164 153 143 112 95 81 57 36 25 25 37 50
171 178 179 178 171 141 119 133 130 99 145 204 168 115 214 223 187 225 222 201 253 282 316 274 241 113 183 184 171 169 165 159 158 155 157 154 147 147 150 153 157 160 164 168 170 170 173 176 179 182 183 182 184 186 185 186 189 187 188 189 173 172 180 182 187 190 191 194 192 189 192 198 198 184 170 165 172 179 183 187 190 193 188 177 173 165 155 142 116 102 88 59 40 31 26 39 60
172 193 180 162 141 129 138 148 143 136 159 197 214 133 159 241 223 220 215 216 244 258 271 263 247 155 182 186 176 171 164 160 160 155 157 157 150 150 152 157 161 162 166 169 170 173 174 176 179 181 182 182 183 184 185 190 192 189 193 196 185 175 176 182 193 197 198 199 196 191 188 191 196 192 181 178 182 181 181 186 190 190 180 172 172 170 165 148 125 116 103 64 41 37 32 40 47
197 189 163 145 137 143 154 154 140 141 123 138 220 127 112 205 220 204 195 206 236 244 245 251 242 202 189 191 183 175 167 162 161 157 158 159 156 156 157 160 164 166 167 169 171 175 175 177 179 182 182 180 181 185 190 194 195 195 197 197 193 189 185 185 192 198 201 202 199 196 191 185 189 195 193 190 191 188 185 186 183 179 175 173 174 170 168 149 121 124 113 71 46 46 40 41 46
208 162 150 144 139 144 151 142 119 128 120 136 224 210 117 209 217 164 173 206 223 226 228 236 234 215 200 196 188 180 171 165 163 160 160 162 162 162 162 162 165 167 168 170 174 176 177 178 180 183 183 181 184 189 192 196 199 201 202 197 191 191 188 186 191 195 197 199 199 198 195 189 193 203 208 204 200 198 195 189 179 175 176 177 177 172 165 146 111 130 130 96 68 60 46 43 46
96 99 109 108 111 119 117 111 105 102 101 186 206 198 142 195 204 162 179 211 215 214 218 226 230 217 204 202 189 183 175 168 166 161 161 165 166 166 166 164 164 167 169 171 175 178 180 180 181 186 188 187 188 189 190 195 198 197 199 196 187 184 183 184 187 190 194 197 199 197 196 196 199 205 212 212 206 201 197 191 182 180 183 178 175 177 174 168 152 144 148 140 87 62 54 52 45
100 88 88 85 88 88 80 83 87 75 327 223 187 191 187 190 204 191 197 207 197 194 204 216 226 221 204 204 194 183 178 169 167 163 161 165 167 167 167 165 165 167 169 172 173 177 180 181 184 189 191 190 191 189 190 194 194 189 190 191 186 183 183 184 184 188 193 196 198 198 197 198 200 203 209 212 207 202 197 193 189 187 188 183 181 186 186 184 178 166 170 188 182 21 61 56 43
109 104 121 103 68 18 54 49 42 89 267 234 174 184 198 225 220 209 214 210 178 182 193 203 214 219 206 203 199 186 180 169 164 164 160 162 165 166 167 166 166 168 170 171 173 176 178 181 184 186 186 189 192 192 193 194 195 191 189 191 191 188 188 188 190 192 195 195 197 197 197 200 202 202 207 211 208 203 198 195 196 194 192 190 187 188 186 182 182 190 196 200 250 264 230 53 44
113 122 134 106 82 8 77 187 282 192 258 260 166 171 191 255 229 207 211 210 180 184 192 195 206 214 209 202 195 188 183 170 162 164 162 161 164 167 168 167 167 169 170 172 174 176 178 181 184 184 184 188 192 194 195 195 195 193 191 193 197 197 196 195 196 198 198 198 199 199 200 203 204 203 206 210 208 205 201 199 201 199 197 195 191 191 190 185 185 196 199 203 230 240 221 199 139
136 146 152 126 135 141 164 205 204 201 270 324 158 164 206 273 247 204 201 200 188 187 193 195 203 210 210 203 190 186 187 173 160 164 166 163 166 168 169 169 169 171 172 173 175 177 178 181 185 187 187 188 191 195 197 197 196 194 191 195 201 204 206 205 204 205 203 203 205 205 206 206 206 206 207 209 210 209 206 203 204 204 202 201 201 198 197 201 209 213 209 207 212 216 213 203 184
155 161 146 135 164 161 167 193 177 170 207 19 118 182 199 217 248 212 194 190 185 185 193 197 206 211 209 203 189 184 190 177 158 164 169 167 168 168 167 169 171 173 173 174 176 178 179 181 184 188 189 190 192 195 197 197 197 195 194 198 203 206 209 210 210 210 209 209 211 211 210 211 211 210 211 213 213 212 210 207 208 209 207 207 209 206 204 207 215 219 216 210 204 208 221 212 196
188 166 128 159 204 160 135 170 151 134 127 115 196 238 213 190 245 229 175 180 187 189 191 194 206 211 204 203 196 186 191 182 163 164 170 169 171 170 167 169 172 173 174 176 178 179 180 182 185 188 190 191 193 194 195 197 198 197 197 199 203 205 207 210 211 210 210 211 212 210 210 213 215 213 215 217 216 214 213 211 213 215 216 216 215 213 212 207 209 215 215 213 210 216 232 219 207
200 151 167 216 199 139 111 95 100 99 105 176 202 262 290 282 270 225 175 181 189 191 192 192 200 204 200 203 201 190 190 187 173 166 169 170 172 172 170 170 171 172 175 178 181 182 183 184 185 187 190 191 194 195 195 197 199 200 200 200 202 203 204 208 209 208 208 210 210 211 212 215 218 217 217 219 218 216 215 214 215 216 217 217 215 215 215 211 212 216 216 216 216 221 229 220 216
133 163 223 234 95 89 100 107 97 91 110 254 246 251 269 259 262 201 171 176 183 186 188 188 193 197 200 205 203 195 189 189 182 169 167 171 173 175 174 173 174 174 176 179 182 184 186 186 187 188 189 191 194 196 195 196 200 201 202 203 203 203 204 206 207 206 206 208 211 214 215 217 219 219 219 220 218 215 215 216 217 216 215 216 215 216 217 215 218 220 220 219 219 224 230 227 231
144 183 241 67 89 359 26 122 159 172 153 272 295 285 243 219 222 187 176 181 179 178 181 185 190 193 197 202 202 198 188 186 186 173 168 172 175 176 174 175 177 177 178 180 182 184 186 188 189 189 191 193 194 196 197 197 200 202 203 204 204 205 205 206 206 205 205 208 212 215 217 220 221 221 221 220 218 217 219 221 218 215 215 219 224 227 222 217 218 223 222 219 219 227 231 229 238
23 214 336 42 145 174 182 163 156 146 163 197 303 317 258 236 238 203 191 187 175 172 180 188 192 194 196 195 198 199 188 182 186 180 175 175 175 176 175 176 178 179 179 180 181 183 185 188 190 191 192 193 193 196 198 199 201 203 204 206 206 206 207 208 207 205 207 210 212 214 218 221 223 224 221 219 221 220 221 223 219 214 215 221 228 231 223 216 217 226 226 220 221 230 230 228 239
76 5 273 234 238 181 155 228 153 134 141 153 142 265 266 259 270 231 205 187 178 177 178 184 191 194 196 193 194 197 186 184 188 182 177 176 176 175 174 176 178 178 179 180 180 182 184 186 189 191 192 192 193 195 197 199 201 204 206 208 208 207 207 207 207 206 208 212 213 214 217 219 222 225 221 218 220 219 218 218 215 213 217 223 227 226 217 214 218 226 228 224 226 237 237 235 243
145 175 198 184 197 166 76 297 287 121 126 160 160 177 269 282 321 285 215 176 178 178 170 176 185 186 190 197 200 196 180 195 200 189 180 174 173 174 172 173 175 177 177 178 180 181 183 185 188 190 191 192 193 196 197 199 200 203 207 209 210 210 208 206 206 207 211 215 216 215 217 219 220 221 220 219 218 218 217 213 210 214 220 224 226 223 216 216 220 226 229 225 228 241 244 237 241
Height
788 788 788 788 788 789 791 792 805 808 808 823 824 822 819 812 811 812 809 805 807 800 790 790 791 793 797 804 808 809 811 815 819 825 828 819 813 819 820 822 823 824 826 827 828 829 829 830 831 831 831 831 831 831 831 831 831 831 830 830 830 830 831 832 833 834 835 835 836 836 836 836 837 837 838 839 839 840 840 840 841 841 841 841 841 841 841 841 841 842 843 844 844 843 844 844 845
788 789 788 789 787 791 795 793 811 817 815 828 827 821 817 810 814 816 808 800 801 794 787 789 790 792 794 798 800 806 812 813 810 812 815 814 816 820 820 822 823 824 826 827 828 829 830 831 832 832 832 832 832 832 832 832 832 832 832 831 831 831 832 833 834 835 836 836 837 837 837 837 838 839 839 840 840 841 841 842 842 842 842 842 842 842 842 843 843 844 845 845 845 845 845 846 846
788 789 788 790 789 791 795 797 813 821 822 833 830 818 812 813 814 811 801 794 793 787 787 788 792 795 797 803 804 810 819 813 808 809 813 816 817 819 821 822 823 825 826 827 828 829 830 831 832 832 833 833 833 833 833 834 833 833 833 832 832 832 833 834 835 836 836 837 837 838 838 839 839 839 840 841 841 842 842 843 843 843 843 843 843 843 844 845 845 845 846 846 846 846 846 847 847
788 789 789 790 792 795 800 806 814 819 825 830 829 819 813 814 807 802 796 791 788 785 788 791 797 796 797 810 809 812 819 815 811 810 813 816 816 819 821 822 825 826 827 828 828 829 830 831 832 833 834 834 834 834 834 834 834 834 834 833 833 833 834 835 836 837 837 838 838 839 839 840 840 840 841 841 842 843 843 844 844 844 844 845 844 845 845 846 846 846 847 847 847 847 848 848 849
789 790 789 790 797 800 803 811 813 817 822 820 823 818 813 811 802 800 794 790 787 786 789 791 801 799 797 807 808 814 817 814 813 810 812 816 817 819 821 823 825 826 828 829 829 830 831 832 833 833 834 835 835 835 835 835 835 835 835 834 834 834 835 836 837 838 838 839 839 840 840 841 841 842 842 842 843 843 844 845 845 846 846 846 846 846 847 847 847 848 848 849 849 849 849 849 850
789 789 789 789 795 798 805 815 816 818 814 808 814 811 807 806 800 799 794 790 786 785 788 790 800 802 806 808 806 812 813 811 813 812 813 816 818 820 822 824 825 827 828 829 830 831 832 833 833 834 835 835 835 836 835 835 835 835 836 835 835 836 836 837 838 839 839 839 840 840 841 841 842 842 843 844 844 844 845 846 846 846 847 847 847 848 848 849 849 849 850 850 850 850 850 850 851
788 791 792 794 797 798 811 819 816 816 808 802 806 804 803 802 798 798 795 794 792 789 789 792 793 800 814 811 810 812 809 810 811 813 815 817 820 821 823 825 826 827 829 830 831 832 833 833 834 835 835 835 836 836 836 836 836 836 837 837 837 837 837 838 839 840 840 840 841 841 842 842 843 844 844 845 845 846 846 847 847 847 848 849 848 849 849 850 850 851 851 851 851 851 852 852 852
789 793 794 801 806 806 814 817 812 812 806 801 801 799 799 798 797 798 796 795 798 796 793 795 789 802 818 810 816 817 809 813 811 815 817 818 821 822 825 825 827 828 830 831 832 833 834 834 835 835 835 836 836 836 837 836 837 837 838 838 838 838 838 839 839 840 841 841 842 842 843 843 844 845 845 846 846 846 847 848 848 849 849 850 850 850 850 851 852 852 852 852 852 852 853 853 853
789 793 796 804 811 813 815 815 811 808 804 803 800 797 796 796 797 796 794 795 797 796 797 796 788 804 821 814 820 817 812 816 814 817 818 821 823 823 826 826 828 828 831 832 833 834 834 835 835 835 836 836 836 837 837 837 838 837 838 838 839 839 839 840 840 841 841 842 843 843 844 844 845 846 846 847 847 847 848 849 849 850 850 851 851 851 852 852 853 853 853 853 853 853 854 854 854
791 795 800 808 813 817 819 815 812 809 804 802 800 796 796 797 798 794 794 797 796 798 799 794 792 805 819 820 822 817 816 818 816 820 821 823 824 825 827 827 829 829 831 833 833 834 835 836 836 836 836 836 837 837 838 838 838 838 839 839 839 840 840 841 841 842 842 843 844 844 845 846 847 847 847 847 848 849 849 850 850 851 851 852 852 853 853 853 854 854 854 853 854 854 855 855 855
797 798 800 811 817 820 819 815 814 810 805 802 800 797 796 796 798 795 793 799 796 800 800 795 803 809 815 822 823 818 817 819 818 821 822 824 825 826 828 829 831 831 832 833 834 835 836 837 836 837 836 837 838 838 839 839 839 839 839 839 840 840 841 841 842 843 843 844 844 845 846 846 847 848 848 848 849 849 850 851 851 852 852 853 853 854 854 854 854 854 854 854 855 855 856 856 856
801 803 804 816 820 818 813 814 815 810 806 804 803 797 795 796 799 797 795 801 798 801 800 796 805 806 816 826 822 819 818 820 821 822 824 825 826 828 829 830 832 832 833 834 835 835 836 837 837 837 837 838 838 838 839 839 840 839 840 840 840 841 841 842 842 843 844 844 845 846 847 847 848 848 849 849 850 850 851 852 852 853 853 854 854 855 855 855 855 855 855 855 856 856 856 857 857
800 805 808 817 815 813 811 813 813 810 810 805 802 797 794 797 799 797 795 800 798 803 801 793 798 801 817 827 820 820 819 821 822 823 825 826 827 829 830 831 832 834 834 835 835 836 836 837 837 838 838 838 838 839 839 840 840 840 841 840 841 841 842 843 843 844 844 845 846 847 848 848 849 849 850 850 851 852 852 853 853 854 854 855 855 855 856 855 855 855 856 856 857 857 857 858 858
798 800 807 815 810 809 810 813 812 812 813 803 799 796 794 796 795 793 793 801 802 800 798 791 793 802 818 824 824 822 819 821 822 824 825 827 829 829 831 832 833 834 835 835 835 836 836 837 838 838 838 838 839 839 840 840 840 841 841 841 842 842 842 843 844 844 845 846 847 847 848 848 849 850 851 851 852 852 853 854 854 855 855 855 855 856 856 856 856 856 857 857 857 858 858 858 859
796 798 804 814 812 810 811 813 811 811 812 801 799 798 799 796 791 794 792 798 802 792 792 794 792 803 816 819 823 819 816 820 822 824 826 827 829 830 832 832 834 834 835 835 835 836 837 838 838 838 839 839 839 839 840 840 841 841 842 842 842 843 843 844 845 845 846 846 847 848 848 848 850 851 852 852 852 853 854 855 855 856 856 856 856 856 857 857 857 857 858 858 858 858 859 859 859
792 797 806 815 814 814 813 811 810 812 810 800 799 800 805 798 789 797 790 788 798 790 792 799 794 799 809 811 813 812 815 820 821 825 826 828 830 831 833 833 835 835 836 836 836 837 837 839 839 839 839 839 840 840 841 841 841 842 842 843 843 843 844 845 845 846 846 847 847 848 849 849 850 851 852 853 853 854 855 855 856 857 857 857 857 857 857 857 858 858 859 859 859 859 859 860 860
791 798 809 817 816 816 813 811 810 810 805 800 800 800 805 802 795 796 787 785 795 795 795 798 795 797 804 806 807 810 815 819 821 824 825 828 830 831 833 834 835 835 837 837 837 838 838 839 839 840 840 840 841 840 841 841 842 843 843 843 843 844 845 846 846 846 847 847 848 849 849 850 850 851 852 853 854 855 855 856 857 857 858 858 858 858 858 858 859 859 860 860 860 860 860 861 861
796 805 813 817 817 814 809 808 807 805 803 801 800 800 803 804 800 795 791 794 797 798 800 799 799 801 804 806 808 811 815 818 821 823 825 827 829 830 832 833 834 835 836 837 838 839 839 840 840 840 840 841 841 841 842 842 843 843 843 844 844 845 846 847 847 847 848 848 848 849 850 851 851 852 852 853 854 855 856 857 857 858 858 858 859 859 859 859 860 860 860 860 861 861 861 862 862
800 807 814 815 810 805 801 802 804 806 805 803 801 799 803 801 796 794 798 803 801 803 806 803 806 808 807 808 810 813 815 819 821 823 825 826 828 829 831 832 834 835 836 837 838 839 839 840 840 840 841 841 842 842 843 843 843 843 844 845 845 846 846 847 848 848 849 849 849 850 851 851 852 852 853 854 855 855 856 857 858 858 859 859 859 860 860 860 861 861 861 861 861 862 862 862 863
800 805 813 810 801 798 796 797 800 801 800 804 806 802 803 797 789 792 799 804 804 806 806 806 811 811 810 810 811 814 816 819 821 824 825 826 828 829 830 832 833 834 835 836 837 839 840 840 840 841 841 842 843 843 844 844 844 844 845 845 846 847 847 848 849 849 850 850 850 851 851 852 853 853 854 854 855 856 857 858 858 859 859 860 860 860 861 861 861 862 862 862 862 862 863 863 863
800 802 807 802 797 799 797 795 795 795 796 801 806 808 811 798 787 791 797 805 808 804 801 802 806 807 809 810 811 814 817 819 822 824 825 827 828 830 831 831 833 834 835 837 838 839 840 840 841 842 843 843 843 844 844 845 845 845 845 846 847 847 848 849 849 850 850 851 851 852 852 853 853 853 854 855 855 856 857 858 858 859 860 860 861 861 862 862 862 863 863 863 863 863 863 863 863
799 799 800 796 795 799 796 793 793 793 796 800 802 807 810 799 790 792 795 805 807 798 796 798 800 802 805 808 810 814 816 819 821 824 826 827 828 830 831 832 833 835 836 837 838 839 840 841 842 843 843 844 844 845 845 846 846 846 846 847 847 848 849 849 850 850 850 851 852 852 853 853 853 854 855 855 856 857 857 858 859 860 860 861 861 862 862 863 863 863 863 864 864 864 864 864 863
799 798 796 795 794 796 793 791 793 792 795 802 801 799 798 798 798 793 793 799 796 790 792 797 800 801 804 807 810 813 816 818 820 823 825 827 828 829 830 832 833 835 836 837 838 840 841 841 843 843 844 844 845 845 846 846 847 847 847 848 848 849 850 850 850 850 851 851 852 853 853 853 854 855 855 856 857 857 858 859 859 860 860 861 862 862 863 863 863 864 864 864 864 864 864 864 863
797 798 796 795 793 793 792 790 792 792 794 797 797 796 796 802 803 794 792 794 789 789 791 796 801 803 805 808 810 813 816 817 819 822 824 826 828 829 830 831 833 834 836 837 839 840 841 842 843 843 844 845 845 846 847 847 847 848 848 849 849 850 850 850 850 851 851 851 852 853 854 854 854 855 856 856 857 857 858 859 859 860 860 861 862 862 863 863 864 864 864 864 864 864 864 864 864
796 797 797 795 793 792 791 791 791 792 794 794 794 798 798 799 801 798 794 790 788 790 793 797 802 805 808 810 811 813 815 817 818 821 823 825 827 829 830 831 832 834 836 837 839 840 841 842 842 843 844 845 846 847 848 848 848 848 849 849 850 850 850 851 851 851 851 852 853 854 854 855 855 855 856 856 857 858 859 859 860 860 861 862 862 863 863 864 864 864 864 864 865 865 864 864 864
793 794 796 795 795 793 792 792 793 795 795 795 799 804 801 794 797 804 798 789 787 790 794 799 803 807 809 810 811 813 814 816 818 820 822 825 827 828 830 831 832 834 836 837 838 840 841 842 842 843 844 845 846 847 848 848 848 849 849 850 850 851 851 851 851 851 852 852 853 854 855 855 855 856 857 857 857 858 859 860 860 861 862 862 863 863 864 864 864 864 864 865 865 865 865 864 864
789 792 795 794 795 795 794 794 795 796 796 797 804 811 807 796 800 812 804 789 787 792 797 800 803 807 808 809 810 811 814 815 817 819 821 824 826 827 829 830 832 833 835 837 838 839 840 841 842 843 844 846 847 848 848 848 848 849 850 850 851 851 851 851 852 852 852 853 854 854 855 855 856 857 857 858 858 859 860 861 861 862 863 863 863 864 864 864 865 865 865 865 865 865 865 864 864
791 795 797 796 796 797 795 797 797 796 799 801 806 811 809 805 806 809 801 789 788 794 800 801 804 807 806 807 809 810 812 814 816 817 819 822 824 826 827 829 831 833 834 836 837 839 840 841 842 843 844 846 847 848 848 849 849 849 850 851 851 851 852 852 852 853 853 853 854 855 855 856 857 857 858 859 859 860 861 861 862 863 863 863 864 864 865 865 865 865 865 865 865 865 865 864 864
795 798 804 802 797 800 800 800 799 799 804 802 803 814 817 813 808 801 792 788 790 795 801 803 804 806 806 807 808 808 810 812 814 816 818 820 822 824 825 827 829 832 834 835 837 838 840 840 841 843 844 846 847 848 848 849 849 850 850 851 851 852 852 852 853 853 854 854 855 855 856 857 857 858 859 859 860 861 862 862 863 863 863 864 864 864 865 865 865 865 865 865 865 865 864 864 864
797 800 810 809 803 806 804 803 802 802 808 800 801 822 826 814 806 802 794 788 792 800 802 804 805 806 806 806 807 808 809 811 813 815 817 818 821 823 824 827 828 830 833 835 837 838 839 840 841 842 844 845 846 848 848 849 849 850 850 851 852 852 852 853 854 854 855 855 855 856 857 857 858 858 859 860 861 861 862 862 863 863 864 864 865 865 865 865 865 865 865 865 865 864 863 863 863
799 804 810 810 812 813 806 805 804 805 808 799 803 825 825 812 807 807 802 793 794 802 804 804 806 806 807 807 808 809 808 810 812 813 816 817 820 822 824 826 828 830 832 834 836 837 839 840 841 842 843 845 846 848 848 849 849 850 850 851 852 852 853 854 855 855 855 855 856 857 857 858 859 859 860 861 861 862 862 863 863 864 864 865 865 865 865 866 866 866 865 865 864 864 863 863 862
802 809 814 810 814 816 808 805 802 805 807 801 812 827 821 812 809 807 805 798 795 803 805 804 806 806 807 808 808 810 809 809 811 812 814 816 819 821 823 825 827 829 831 833 836 837 839 840 841 842 843 845 846 847 848 849 849 850 851 851 852 852 853 855 855 856 856 856 857 857 858 859 859 860 860 861 862 862 863 863 863 864 865 865 865 865 865 866 866 865 865 865 864 864 863 863 862
807 812 818 814 816 820 816 809 802 804 806 806 815 821 817 813 809 806 805 798 797 803 805 805 807 806 807 809 808 809 810 810 811 812 814 816 818 820 822 824 826 828 830 832 835 837 838 839 841 842 843 844 846 847 848 849 849 850 851 851 852 853 854 855 855 856 856 857 857 858 859 859 860 860 860 861 862 862 863 863 864 864 865 865 865 866 866 866 866 865 865 865 864 863 863 862 862
813 815 818 813 813 819 820 815 808 805 807 811 812 812 815 813 807 808 807 800 799 803 805 805 806 806 807 808 809 809 810 811 811 811 813 815 817 819 821 823 825 827 830 832 834 836 838 839 841 841 843 844 845 847 848 849 850 850 851 852 852 853 854 855 856 856 857 857 858 859 859 860 860 860 861 861 862 863 863 863 864 865 865 865 866 866 866 866 866 866 865 865 864 863 862 862 861
812 815 815 814 812 815 818 815 809 806 807 811 813 813 816 813 809 810 809 805 804 803 803 805 805 806 808 808 809 810 810 811 810 810 812 814 816 819 821 823 825 827 829 831 833 835 837 839 840 842 843 844 845 846 847 849 850 851 852 852 853 854 854 855 856 857 857 858 858 859 860 860 861 861 861 862 862 863 863 864 865 865 865 865 865 866 866 866 866 866 866 865 864 863 862 862 862
800 804 807 812 815 815 812 808 803 801 808 814 815 818 818 815 814 812 810 808 807 804 802 804 805 806 807 808 809 809 811 811 808 809 811 813 816 819 821 823 825 827 829 831 833 835 837 839 840 842 843 844 845 846 847 848 849 851 852 853 854 854 855 855 856 856 857 858 859 859 860 861 861 862 862 862 862 863 864 864 865 865 866 866 866 866 866 866 866 866 866 865 864 863 862 862 862
791 799 805 808 813 815 808 805 802 796 808 819 816 818 820 817 817 815 812 811 808 806 804 805 806 807 808 808 809 810 811 809 807 809 812 813 816 818 821 823 825 828 830 831 833 834 836 838 839 841 843 844 845 846 846 847 848 849 850 852 853 853 854 855 855 856 857 858 859 859 861 861 862 862 863 863 863 864 864 864 865 866 866 866 866 866 866 866 866 866 866 865 864 863 863 862 862
790 798 805 809 811 813 808 805 805 799 809 821 815 818 822 818 817 816 814 813 810 808 806 805 805 806 807 807 808 809 809 808 807 810 812 814 816 818 820 823 825 827 830 831 832 834 836 837 839 840 842 844 845 846 847 847 848 849 849 850 852 853 854 854 854 855 856 858 859 860 860 861 862 863 863 864 864 865 864 864 865 865 865 866 866 866 866 866 866 866 866 865 864 864 863 863 863
792 797 803 812 811 812 813 807 807 810 816 822 817 818 823 819 817 816 815 813 811 809 806 805 804 805 807 807 807 808 809 809 809 810 812 814 816 818 820 822 824 827 829 831 832 834 835 837 838 840 842 843 845 846 847 848 849 849 850 851 851 852 853 854 854 855 856 857 859 860 860 861 862 863 863 864 864 865 865 865 865 865 866 866 866 866 866 866 866 866 866 865 864 864 863 863 864
791 796 804 814 809 810 818 814 814 817 818 820 818 818 823 822 820 817 814 812 809 808 806 804 802 803 804 804 804 806 809 810 810 810 811 813 816 818 820 822 824 827 829 831 833 834 835 836 838 839 841 843 844 846 847 848 849 850 851 852 852 853 853 854 855 856 856 857 858 859 860 861 862 863 864 864 864 865 865 865 865 866 866 866 866 866 866 866 866 866 865 865 865 864 864 863 864
788 790 798 807 804 803 810 812 816 819 819 817 817 826 829 824 826 821 812 812 811 807 806 804 802 802 802 801 802 803 805 807 809 811 810 812 815 817 819 822 824 827 829 831 832 833 835 836 838 839 841 843 844 846 847 848 849 850 851 852 852 853 853 854 855 856 857 857 857 858 859 860 861 862 863 863 864 864 865 865 866 866 866 866 866 866 866 866 866 866 866 866 866 865 865 864 864
792 788 787 792 795 798 806 810 815 825 832 821 817 837 840 824 824 824 815 816 814 808 807 805 803 803 802 802 803 802 802 804 806 808 810 811 814 817 819 822 824 827 828 830 832 833 835 836 838 839 841 843 844 846 847 848 849 850 850 851 851 852 853 853 854 854 856 857 857 858 858 859 860 861 862 862 863 863 864 864 865 865 865 865 866 866 866 866 867 867 867 867 867 866 866 865 865
795 782 775 783 790 799 808 808 813 828 833 820 815 833 842 831 825 821 817 819 816 811 809 806 803 804 803 802 803 802 802 803 804 806 808 810 814 816 819 821 823 826 828 830 832 833 835 836 838 839 841 843 844 846 847 848 849 850 850 851 852 852 852 853 854 854 855 856 857 858 858 859 860 860 861 862 862 863 863 864 864 865 865 865 866 866 867 867 867 867 867 867 867 867 866 866 865
787 770 769 782 789 799 805 803 812 821 821 821 818 821 836 839 826 816 816 819 818 814 811 807 804 804 803 802 801 800 800 802 803 806 807 809 812 815 817 821 822 825 828 830 832 833 835 837 838 840 841 842 844 846 847 848 849 850 851 851 852 853 853 854 854 855 856 856 857 857 858 859 860 860 861 862 862 862 863 863 864 865 865 866 866 867 867 867 867 867 867 867 868 867 867 866 866
772 763 769 778 785 795 799 803 814 815 819 832 827 818 834 841 824 815 818 821 820 815 811 807 803 802 802 801 801 799 798 799 800 803 806 808 811 813 816 819 822 824 827 829 831 833 835 837 838 840 841 842 844 845 847 848 849 850 851 852 853 854 854 855 855 856 857 857 857 858 858 859 860 860 861 862 862 862 863 863 864 865 865 866 866 866 867 867 867 867 867 868 868 868 867 867 867
765 764 774 780 787 795 799 808 816 816 824 835 828 820 833 840 827 822 824 822 818 812 808 805 802 801 801 800 799 798 797 798 799 800 803 806 809 812 815 817 821 823 826 828 830 832 835 837 839 840 841 842 844 845 846 848 850 850 851 852 853 854 855 856 856 857 857 858 858 859 859 860 861 861 862 862 862 863 863 863 864 864 865 865 866 866 866 867 867 867 868 868 868 868 868 867 867
764 772 785 792 797 798 803 808 811 825 832 824 819 817 826 837 830 820 816 809 805 806 807 804 800 799 799 799 798 797 797 797 798 800 802 805 808 811 814 816 819 822 825 827 829 831 834 836 838 839 841 842 843 845 846 847 849 850 851 852 853 854 855 856 856 857 857 858 859 859 860 861 861 862 862 863 863 863 863 864 864 865 865 865 866 866 867 867 868 868 868 868 868 868 868 868 867
763 779 791 803 811 810 815 817 817 837 837 814 809 813 822 835 825 809 802 794 793 800 802 802 800 798 797 797 796 795 796 796 797 800 802 805 808 810 813 815 818 821 824 826 828 830 832 835 837 839 840 841 843 844 845 846 848 849 851 852 853 854 855 856 856 857 857 858 859 860 861 862 862 863 863 863 864 864 864 864 865 865 865 866 866 867 867 868 868 868 868 868 868 868 868 868 868
769 785 795 812 829 830 834 837 833 838 830 809 806 812 822 825 807 796 796 792 792 793 794 796 796 796 795 794 795 794 794 794 796 799 801 803 806 809 812 814 816 819 821 824 826 828 831 833 835 837 839 840 842 844 845 846 847 848 850 851 853 854 855 856 856 857 857 858 858 859 860 861 862 862 863 863 864 864 865 865 865 865 866 866 867 867 867 868 868 868 868 868 868 868 868 868 868
776 786 794 809 829 839 845 844 835 834 827 811 806 813 822 816 795 786 788 786 787 788 789 792 791 792 792 791 792 792 792 793 794 797 799 802 804 807 810 812 814 817 820 822 825 827 829 831 834 836 838 839 841 843 844 845 846 847 849 851 852 853 854 855 856 857 857 858 858 859 859 860 861 862 862 863 864 864 865 865 865 866 866 866 867 867 867 868 868 868 868 868 868 868 868 868 868
773 772 779 795 806 816 829 830 827 832 831 820 815 818 819 810 794 781 777 778 781 784 787 788 788 788 788 788 790 791 792 792 792 795 797 799 802 805 808 810 812 815 818 821 823 825 827 829 832 834 836 838 840 841 843 844 846 847 848 850 851 852 853 854 855 856 857 858 858 858 859 859 860 861 862 863 864 864 865 865 866 866 866 867 867 867 867 867 868 868 868 868 868 868 868 868 869
771 766 778 791 782 780 797 806 808 820 831 830 824 815 803 794 785 776 775 778 779 782 785 787 789 788 787 789 790 790 791 790 791 794 795 797 800 802 805 808 811 813 816 819 821 824 826 828 830 832 834 837 838 840 842 843 845 846 847 848 850 851 852 853 854 856 856 857 858 858 859 859 859 860 861 862 863 864 864 865 865 866 866 867 867 867 867 867 867 867 868 868 868 868 868 868 868
769 769 779 774 757 761 786 802 801 808 826 828 819 810 799 792 786 777 776 781 780 782 784 786 788 787 788 790 789 789 790 789 790 791 793 796 798 800 803 805 808 811 814 817 819 822 824 826 828 831 833 835 837 839 840 842 844 845 846 847 848 849 851 852 853 855 856 857 858 858 859 859 860 860 861 862 863 863 864 865 865 866 866 866 867 867 867 867 867 868 868 868 868 868 868 868 868
762 770 766 755 754 759 774 802 814 812 821 823 815 813 809 805 797 782 778 783 782 781 782 784 787 787 789 788 786 788 788 787 788 788 790 793 796 798 801 803 806 808 811 814 817 820 822 824 826 829 831 833 835 837 839 840 842 843 845 845 846 848 849 851 852 853 855 856 857 858 859 859 859 860 861 861 862 863 863 864 865 865 866 866 867 867 867 867 867 868 868 868 868 868 868 868 868
750 756 749 754 776 780 776 796 814 816 825 828 818 813 810 804 796 785 782 783 780 780 782 783 785 786 786 786 785 785 786 787 787 788 789 791 793 796 798 801 804 806 809 811 815 818 820 823 825 826 829 831 833 836 837 839 840 841 843 844 845 846 848 849 851 852 854 855 856 857 858 859 859 860 861 861 862 862 863 863 864 865 865 866 866 866 867 867 867 868 868 868 868 868 868 868 868
745 749 749 755 771 778 777 783 792 804 822 828 822 818 809 795 786 782 780 778 776 779 781 781 782 782 782 783 784 784 785 787 786 787 787 788 790 793 795 798 801 804 807 809 813 816 818 821 824 826 828 829 832 834 836 837 839 840 842 843 844 845 846 848 849 851 852 854 855 856 857 859 859 860 860 861 861 862 862 863 863 864 865 865 866 866 866 867 867 867 868 868 868 868 868 867 867
755 760 764 764 763 766 771 774 775 786 808 822 824 822 808 787 779 778 775 773 773 774 778 780 780 780 781 782 783 783 784 785 785 784 785 786 788 790 792 795 798 801 805 807 810 814 816 819 822 824 826 828 830 832 834 836 837 839 840 841 843 844 845 846 848 849 851 852 854 855 856 858 858 859 860 860 861 861 861 862 863 864 864 864 865 865 866 866 867 867 867 867 868 867 867 867 867
755 759 762 764 764 769 782 787 776 771 789 806 810 813 806 786 776 775 771 770 770 770 774 778 778 779 780 781 781 783 785 785 784 782 782 783 785 788 791 794 797 800 802 806 808 811 814 817 819 822 824 826 828 830 832 833 835 837 839 840 841 843 844 845 846 848 849 851 852 854 855 856 857 858 859 859 860 860 861 861 862 863 863 864 864 865 865 866 866 867 867 867 867 866 866 866 866